Weather History for PAFB - July, 2013

Change the Weather History Date:

Monday, July 1, 2013

  Actual Average Record
Temperature  
Mean Temperature 70 °F -  
Max Temperature 80 °F 70 °F 84 °F (1997)
Min Temperature 57 °F 54 °F 50 °F (1996)
Cooling Degree Days 5    
Growing Degree Days 20 (Base 50)    
Moisture  
Dew Point 46 °F    
Average Humidity 46    
Maximum Humidity 77    
Minimum Humidity 24    
Precipitation  
Precipitation 0.11 in - - ()
Sea Level Pressure  
Sea Level Pressure 29.53 in    
Wind  
Wind Speed 7 mph (WNW)    
Max Wind Speed 32 mph    
Max Gust Speed 38 mph    
Visibility 10 miles    
Events Rain , Thunderstorm    
Averages and records for this station are not official NWS values.
T = Trace of Precipitation, MM = Missing Value Source: NWS Daily Summary

Daily Weather History Graph

Daily Weather History Graph

Search for Another Location

Airport or City:

Trip Planner

Search our weather history database for the weather conditions in past years. The results will help you decide how hot, cold, wet, or windy it might be!

Date:

Astronomy

Jul. 01, 2013 Rise Set
Actual Time 3:11 AM AKDT 12:35 AM AKDT
Civil Twilight Sun does not set Sun does not set
Nautical Twilight Sun does not set Sun does not set
Astronomical Twilight Sun does not set Sun does not set
Moon 12:59 AM AKDT (7/1) 5:05 PM AKDT (7/1)
Length of Visible Light 24h 00m
Length of Day
21h 24m
Waning Crescent, 34% of the Moon is Illuminated
Jul 1
Waning Crescent
Jul 7
New
Jul 15
First Quarter
Jul 22
Full
Jul 29
Last Quarter

Hourly Weather History & Observations

Time (AKDT) Temp. Dew Point Humidity Pressure Visibility Wind Dir Wind Speed Gust Speed Precip Events Conditions
12:56 AM 69.1 °F 43.0 °F 39% 29.63 in 10.0 mi West 11.5 mph - N/A   Overcast
1:56 AM 66.9 °F 45.0 °F 45% 29.64 in 10.0 mi WNW 10.4 mph - N/A   Overcast
2:56 AM 66.0 °F 45.0 °F 47% 29.64 in 10.0 mi NW 4.6 mph - N/A   Scattered Clouds
3:56 AM 66.0 °F 45.0 °F 47% 29.63 in 10.0 mi North 3.5 mph - N/A   Overcast
4:56 AM 64.0 °F 46.0 °F 52% 29.62 in 10.0 mi NE 3.5 mph - N/A   Overcast
5:56 AM 64.0 °F 46.0 °F 52% 29.62 in 10.0 mi East 3.5 mph - N/A   Mostly Cloudy
6:25 AM 64.4 °F 46.4 °F 52% 29.61 in 13.0 mi ENE 3.5 mph - N/A   Scattered Clouds
6:55 AM 66.2 °F 46.4 °F 49% 29.60 in 13.0 mi Calm Calm - N/A   Scattered Clouds
7:55 AM 66.2 °F 48.2 °F 52% 29.59 in 13.0 mi Variable 2.3 mph - N/A   Mostly Cloudy
8:55 AM 69.8 °F 44.6 °F 40% 29.58 in 13.0 mi Variable 3.5 mph - N/A   Scattered Clouds
9:55 AM 71.6 °F 46.4 °F 41% 29.57 in 13.0 mi Variable 3.5 mph - N/A   Scattered Clouds
10:55 AM 71.6 °F 46.4 °F 41% 29.55 in 13.0 mi Variable 3.5 mph - N/A   Scattered Clouds
11:55 AM 73.4 °F 46.4 °F 38% 29.54 in 13.0 mi NW 5.8 mph - N/A   Mostly Cloudy
12:55 PM 73.4 °F 44.6 °F 36% 29.51 in 13.0 mi Variable 3.5 mph - N/A   Mostly Cloudy
1:55 PM 77.0 °F 42.8 °F 29% 29.49 in 6.0 mi NE 3.5 mph - N/A   Smoke
2:55 PM 77.0 °F 42.8 °F 29% 29.48 in 6.0 mi Calm Calm - N/A   Smoke
3:55 PM 78.8 °F 42.8 °F 28% 29.45 in 6.0 mi Variable 3.5 mph - N/A   Smoke
4:55 PM 80.6 °F 41.0 °F 24% 29.43 in 7.0 mi WSW 5.8 mph - N/A   Mostly Cloudy
5:55 PM 75.2 °F 44.6 °F 34% 29.43 in 7.0 mi West 11.5 mph 17.3 mph N/A   Mostly Cloudy
6:06 PM 73.4 °F 44.6 °F 36% 29.44 in 6.0 mi WSW 19.6 mph 32.2 mph N/A Rain Light Rain Showers
6:15 PM 71.6 °F 42.8 °F 35% 29.44 in 5.0 mi SW 32.2 mph 38.0 mph N/A   Widespread Dust
6:55 PM 66.2 °F 46.4 °F 49% 29.47 in 7.0 mi WNW 9.2 mph 25.3 mph N/A Thunderstorm Mostly Cloudy
7:08 PM 66.2 °F 48.2 °F 52% 29.48 in 7.0 mi Variable 4.6 mph - N/A Rain , Thunderstorm Light Rain Showers
7:40 PM 64.4 °F 51.8 °F 64% 29.48 in 10.0 mi WNW 11.5 mph - N/A   Mostly Cloudy
7:55 PM 64.4 °F 50.0 °F 59% 29.48 in 10.0 mi WNW 11.5 mph - N/A   Mostly Cloudy
8:55 PM 64.4 °F 48.2 °F 56% 29.49 in 10.0 mi NW 5.8 mph - N/A   Mostly Cloudy
9:55 PM 64.4 °F 46.4 °F 52% 29.50 in 10.0 mi West 3.5 mph - N/A   Mostly Cloudy
10:56 PM 60.1 °F 51.1 °F 72% 29.51 in 10.0 mi Calm Calm - N/A   Partly Cloudy
11:56 PM 57.0 °F 50.0 °F 77% 29.53 in 10.0 mi Calm Calm - N/A   Overcast